Grand Island, NE

8:43 AM CST on December 15, 2017 (GMT -0600)
Central Nebraska Regional

Weather History for KGRI - October, 2011

Change the Weather History Date:

Tuesday, October 11, 2011

  Actual Average Record
Temperature  
Mean Temperature 60 °F 54 °F  
Max Temperature 69 °F 67 °F 97 °F (2015)
Min Temperature 50 °F 41 °F 22 °F (1987)
Degree Days  
Heating Degree Days 5 11  
Month to date heating degree days 21 105  
Since 1 July heating degree days 182 220  
Cooling Degree Days 0 0  
Month to date cooling degree days 24 10  
Year to date cooling degree days 1112 1033  
Growing Degree Days 10 (Base 50)    
Moisture  
Dew Point 53 °F    
Average Humidity 78    
Maximum Humidity 96    
Minimum Humidity 59    
Precipitation  
Precipitation 0.72 in 0.06 in 1.21 in (1902)
Month to date precipitation 2.15 0.74  
Year to date precipitation 25.79 23.74  
Snow  
Snow 0.00 in 0.00 in T in (2009)
Month to date snowfall 0.0 0.1  
Since 1 July snowfall 0.0 0.2  
Since 1 September snowfall 0.0 0.2  
Snow Depth 0.00 in    
Sea Level Pressure  
Sea Level Pressure 29.80 in    
Wind  
Wind Speed 7 mph (South)    
Max Wind Speed 14 mph    
Max Gust Speed 17 mph    
Visibility 7 miles    
Events Rain , Thunderstorm    
T = Trace of Precipitation, MM = Missing Value Source: NWS Daily Summary

Daily Weather History Graph

Daily Weather History Graph

Search for Another Location

Airport or City:

Trip Planner

Search our weather history database for the weather conditions in past years. The results will help you decide how hot, cold, wet, or windy it might be!

Date:

Astronomy

Oct. 11, 2011 Rise Set
Actual Time 7:40 AM CDT 6:59 PM CDT
Civil Twilight 7:12 AM CDT 7:26 PM CDT
Nautical Twilight 6:40 AM CDT 7:58 PM CDT
Astronomical Twilight 6:08 AM CDT 8:30 PM CDT
Moon 6:31 PM CDT (10/11) 7:19 AM CDT (10/11)
Length of Visible Light 12h 14m
Length of Day
11h 19m
Full, 100% of the Moon is Illuminated
Oct 11
Full
Oct 11
Full
Oct 19
Last Quarter
Oct 26
New
Nov 2
First Quarter

Hourly Weather History & Observations

Time (CDT) Temp. Dew Point Humidity Pressure Visibility Wind Dir Wind Speed Gust Speed Precip Events Conditions
12:53 AM 53.1 °F 48.9 °F 86% 29.90 in 10.0 mi South 8.1 mph - N/A   Clear
1:53 AM 52.0 °F 48.0 °F 86% 29.90 in 10.0 mi South 8.1 mph - N/A   Clear
2:53 AM 52.0 °F 48.0 °F 86% 29.89 in 10.0 mi South 9.2 mph - N/A   Clear
3:53 AM 51.1 °F 48.0 °F 89% 29.88 in 10.0 mi South 9.2 mph - N/A   Clear
4:53 AM 50.0 °F 48.2 °F 94% 29.88 in 10.0 mi South 8.1 mph - N/A   Clear
5:53 AM 51.1 °F 48.0 °F 89% 29.87 in 10.0 mi SSE 9.2 mph - N/A   Clear
6:53 AM 51.1 °F 48.9 °F 92% 29.86 in 8.0 mi SSE 9.2 mph - N/A   Clear
7:53 AM 52.0 °F 50.0 °F 93% 29.85 in 6.0 mi South 11.5 mph - N/A   Mostly Cloudy
8:18 AM 51.8 °F 50.0 °F 94% 29.86 in 4.0 mi South 10.4 mph - N/A   Scattered Clouds
8:27 AM 51.8 °F 51.8 °F 100% 29.86 in 3.0 mi South 10.4 mph - N/A   Mostly Cloudy
8:35 AM 53.6 °F 51.8 °F 94% 29.86 in 2.0 mi South 10.4 mph - N/A   Overcast
8:42 AM 53.6 °F 51.8 °F 94% 29.86 in 1.2 mi South 9.2 mph - N/A   Overcast
10:33 AM 55.4 °F 53.6 °F 94% 29.85 in 2.5 mi South 10.4 mph - N/A   Overcast
10:53 AM 55.9 °F 54.0 °F 93% 29.84 in 2.5 mi South 8.1 mph - N/A   Overcast
11:07 AM 57.2 °F 53.6 °F 88% 29.84 in 3.0 mi South 10.4 mph - N/A   Overcast
11:30 AM 57.2 °F 53.6 °F 88% 29.84 in 5.0 mi South 8.1 mph - N/A   Overcast
11:53 AM 57.9 °F 54.0 °F 87% 29.83 in 8.0 mi SSE 10.4 mph - N/A   Overcast
12:35 PM 59.0 °F 53.6 °F 82% 29.83 in 9.0 mi South 8.1 mph - N/A   Overcast
12:53 PM 60.1 °F 55.0 °F 83% 29.81 in 9.0 mi South 8.1 mph - N/A   Overcast
1:23 PM 60.8 °F 53.6 °F 77% 29.81 in 10.0 mi South 11.5 mph - N/A   Overcast
1:53 PM 62.6 °F 53.6 °F 72% 29.80 in 10.0 mi SSW 10.4 mph - N/A   Overcast
2:53 PM 66.9 °F 54.0 °F 63% 29.76 in 10.0 mi SW 9.2 mph - N/A   Mostly Cloudy
3:18 PM 69.8 °F 53.6 °F 56% 29.76 in 10.0 mi WSW 11.5 mph - N/A   Scattered Clouds
3:53 PM 68.0 °F 54.0 °F 61% 29.74 in 10.0 mi West 6.9 mph - N/A   Clear
4:53 PM 68.0 °F 54.0 °F 61% 29.72 in 10.0 mi West 4.6 mph - N/A   Partly Cloudy
5:53 PM 66.9 °F 54.0 °F 63% 29.71 in 10.0 mi West 5.8 mph - N/A   Partly Cloudy
6:53 PM 64.0 °F 55.0 °F 73% 29.73 in 10.0 mi West 3.5 mph - N/A   Partly Cloudy
7:53 PM 61.0 °F 54.0 °F 78% 29.73 in 10.0 mi NW 5.8 mph - N/A   Mostly Cloudy
8:15 PM 60.8 °F 55.4 °F 82% 29.75 in 5.0 mi Variable 3.5 mph - 0.01 in Rain , Thunderstorm Thunderstorms and Rain
8:29 PM 60.8 °F 53.6 °F 77% 29.76 in 2.5 mi Variable 3.5 mph 16.1 mph 0.08 in Rain , Thunderstorm Light Thunderstorms and Rain
8:36 PM 59.0 °F 53.6 °F 82% 29.75 in 6.0 mi Calm Calm - 0.18 in Rain , Thunderstorm Light Thunderstorms and Rain
8:41 PM 57.2 °F 55.4 °F 94% 29.76 in 1.8 mi SW 5.8 mph - 0.25 in Rain , Thunderstorm Heavy Thunderstorms and Rain
8:51 PM 57.2 °F 55.4 °F 94% 29.75 in 1.5 mi South 4.6 mph - 0.63 in Rain , Thunderstorm Heavy Thunderstorms and Rain
8:53 PM 57.9 °F 55.0 °F 90% 29.74 in 2.5 mi South 5.8 mph - 0.63 in Rain , Thunderstorm Light Thunderstorms and Rain
9:01 PM 57.2 °F 55.4 °F 94% 29.75 in 5.0 mi Calm Calm - 0.03 in Rain , Thunderstorm Light Rain
9:22 PM 57.2 °F 55.4 °F 94% 29.74 in 8.0 mi East 8.1 mph - 0.07 in Thunderstorm Scattered Clouds
9:43 PM 57.2 °F 55.4 °F 94% 29.75 in 9.0 mi ESE 3.5 mph - 0.07 in Thunderstorm Mostly Cloudy
9:53 PM 59.0 °F 55.9 °F 90% 29.74 in 10.0 mi East 5.8 mph - 0.07 in Thunderstorm Mostly Cloudy
10:04 PM 59.0 °F 55.4 °F 88% 29.73 in 10.0 mi ESE 8.1 mph - N/A   Mostly Cloudy
10:19 PM 60.8 °F 55.4 °F 82% 29.74 in 10.0 mi Calm Calm - 0.00 in Rain , Thunderstorm Light Thunderstorms and Rain
10:53 PM 57.9 °F 54.0 °F 87% 29.72 in 10.0 mi SE 4.6 mph - 0.02 in Thunderstorm Thunderstorm
11:09 PM 57.2 °F 53.6 °F 88% 29.72 in 10.0 mi SE 6.9 mph - N/A   Clear
11:53 PM 55.9 °F 54.0 °F 93% 29.72 in 10.0 mi Calm Calm - N/A   Scattered Clouds